DECAYED

IRIDIUM 33 DEB, 38236 (Decayed)

Orbit data source: Space-Track

IRIDIUM 33 DEB, 38236 was space debris in LEO originally from a launch on Sun, 14 Sep 1997 UTC launched from the Tyuratam Missile And Space Complex (TTMTR). The debris from Iridium 33, an American commercial communications satellite, has been tracked extensively since its accidental collision with the defunct Russian satellite Cosmos 2251 in 2009. This event, occurring at high speed in low Earth orbit (LEO), generated thousands of pieces of space debris, significantly increasing the risk of further collisions. The Iridium 33 debris cloud has impacted space traffic management and orbital debris mitigation strategies, making it a subject of ongoing study in space situational awareness.

Not visible in the next 10 days
Identifier
38236, 1997-051ZL
Orbit
Decayed
Country
Flag of USUS
Related business
Manufacturer
Unknown
Mission
Decayed spacecraft
Bus & Motor
Unknown
Mass
Unknown
Launch date (UTC)
1997-09-14 (29 years ago)
Launch vehicle
Unknown
Launch site
Tyuratam Missile And Space Complex (TTMTR)
Object type
Payload
Rocket body
Debris
Shape & HBR
Unknown shape, 0.1 m
Radar Cross Section
Small (<0.1 m²)

Expand to show TLE details & history
Last TLE update: 1 year ago

TLE from 1 year ago
0 IRIDIUM 33 DEB
1 38236U 97051ZL  25103.22218081  .00443636  00000-0  21638-1 0  9996
2 38236  86.2416  75.8019 0015205 220.5262 139.4848 15.16148336581372
Epoch: 2025-04-13T05:19Z
TLE epoch observation values (Epoch: 2025-04-13T05:19:56.421Z)
Latitude
-0.00003°
Longitude
154.16222°
Altitude
528.638 km
Speed
7.594 km/s
True Right ascension
05h 03m 12s
True Declination
0° 00' 00"
Sunlit
Object was in daylight at epoch
Visualization orbit readout
Latitude
Unknown
Longitude
Unknown
Altitude
Unknown
Speed
Unknown
Apparent Right ascension
Unknown
Apparent Declination
Unknown
Sunlit
N/A
Visualization observer readout
Local Sidereal Time
04:56:26
Azimuth
Unknown
Elevation
Unknown
Doppler factor
Unknown
Orbital elements
Apogee altitude
524.828 km
Perigee altitude
503.868 km
Semi-major axis
6,892.485 km
Eccentricity
0.00152
Inclination
86.2416°
RAAN
75.8019°
Arg. of periapsis
220.5262°
True anomaly
139.59783°
Mean anomaly
139.4848°
Eccentric anomaly
139.54133°
Mean motion
3.79297 °/min
Orbital period
94.91 mins
BSTAR
0.021638
Loading maneuver chart data...
Computing Atmospheric mass density...

Documentation

Showing up to 5 results
|